#timestamp,LO_Frequency,Hit 
1599494415.9,286047005.4,N
1599494435.7,286047003.2,N
1599494455.5,286047005.3,N
1599494475.4,286047005.0,N
1599494495.2,286047005.8,N
1599494515.0,286047005.0,N
1599494515.9,286047005.0,N
1599494535.8,286047005.0,N
1599494555.6,286047006.5,N
1599494575.4,286047006.2,N
1599494595.2,286047006.8,N
1599494615.1,286047006.7,N
1599494616.0,286047006.7,N
1599494635.8,286047006.2,N
1599494655.7,286047009.2,P
1599494675.5,286047003.1,N
1599494695.3,286047005.0,N
1599494715.2,286047005.9,N
1599494735.9,286047005.3,N
1599494755.7,286047007.0,P
1599494775.6,286047000.2,N
1599494795.4,286047000.2,N
1599494815.2,286047002.4,N
1599494835.1,286047001.6,N
1599494836.0,286047001.6,N
1599494855.8,286047000.1,N
1599494875.6,286047001.9,N
1599494895.5,286047002.4,N
1599494915.3,286047002.0,N
1599494935.1,286047000.0,N
1599494955.9,286047002.7,N
1599494975.7,286047002.4,N
1599494995.5,286047002.6,N
1599495015.4,286046999.8,N
1599495035.2,286047002.0,N
1599495055.0,286047000.2,N
1599495055.9,286047000.2,N
1599495075.8,286047002.0,N
1599495095.6,286046999.8,N
1599495115.4,286047001.3,N
1599495135.3,286047001.7,N
1599495155.1,286047001.8,N
1599495156.0,286047001.8,N
1599495175.8,286047001.6,N
1599495195.7,286047001.4,N
1599495215.5,286047004.3,N
1599495235.3,286047003.8,N
1599495255.2,286047003.4,N
1599495275.9,286047004.1,N
1599495295.7,286047006.0,P
1599495315.6,286047002.4,N
1599495335.4,286047004.3,N
1599495355.2,286047003.9,N
1599495375.1,286047001.3,N
1599495376.0,286047001.3,N
1599495395.8,286047004.4,N
1599495415.6,286047002.3,N
1599495435.5,286047001.7,N
1599495455.3,286047002.6,N
1599495475.1,286047001.3,N
1599495495.9,286047004.3,N
1599495515.7,286047001.9,N
1599495535.5,286047002.4,N
1599495555.4,286047002.5,N
1599495575.2,286047000.7,N
1599495595.0,286046999.8,N
1599495595.9,286046999.8,N
1599495615.8,286047002.7,N
1599495635.6,286047000.0,N
1599495655.4,286046998.2,N
1599495675.3,286046998.4,N
1599495695.1,286047000.2,N
1599495696.0,286047000.2,N
1599495715.8,286047001.2,N
1599495735.7,286047001.1,N
1599495755.5,286047000.8,N
1599495775.3,286046999.0,N
1599495795.2,286046999.3,N
1599495815.9,286046998.7,N
1599495835.7,286046998.8,N
1599495855.6,286046999.0,N
1599495875.4,286046997.8,N
1599495895.2,286046997.8,N
1599495915.1,286046997.2,N
1599495916.0,286046997.2,N
1599495935.8,286046997.8,N
1599495955.6,286046999.1,N
1599495975.5,286046996.5,N
1599495995.3,286046997.3,N
1599496015.1,286046995.0,N
1599496035.8,286046997.4,N
1599496055.7,286046995.2,N
1599496075.5,286046995.6,N
1599496095.3,286046995.3,N
1599496115.2,286046995.4,N
1599496135.0,286046995.1,N
1599496135.9,286046995.1,N
1599496155.7,286046996.0,N
1599496175.6,286046995.9,N
1599496195.4,286046996.0,N
1599496215.3,286046993.8,P
1599496235.1,286046997.1,N
1599496236.0,286046997.1,N
1599496255.8,286046995.0,P
1599496275.7,286047000.7,N
1599496295.5,286046998.6,N
1599496315.3,286046998.6,N
1599496335.2,286047001.1,N
1599496355.9,286046999.3,N
1599496375.7,286046998.7,N
1599496395.6,286046998.6,N
1599496415.4,286046998.5,N
1599496435.2,286046998.9,N
1599496455.1,286046996.5,N
1599496456.0,286046996.5,N
1599496475.8,286046999.0,N
1599496495.6,286046999.4,N
1599496515.5,286046996.6,N
1599496535.3,286046996.6,N
1599496555.1,286046997.7,N
1599496575.9,286046999.1,N
1599496595.7,286046997.1,N
1599496615.5,286046998.9,N
1599496635.4,286046998.4,N
1599496655.2,286046996.7,N
1599496675.0,286046998.2,N
1599496675.9,286046998.2,N
1599496695.8,286046998.7,N
1599496715.6,286047000.7,N
1599496735.4,286047000.7,N
1599496755.3,286047000.0,N
1599496775.1,286047001.0,N
1599496776.0,286047001.0,N
1599496795.8,286046999.9,N
1599496815.7,286047002.6,N
1599496835.5,286047001.6,N
1599496855.3,286047002.1,N
1599496875.1,286047001.4,N
1599496895.9,286047001.6,N
1599496915.7,286047001.7,N
1599496935.5,286047004.3,N
1599496955.4,286047003.3,N
1599496975.2,286047003.4,N
1599496995.0,286047005.4,N
1599496996.0,286047005.4,N
1599497015.8,286047005.2,N
1599497035.6,286047005.8,N
1599497055.4,286047004.5,N
1599497075.3,286047005.1,N
1599497095.1,286047004.5,N
1599497115.8,286047007.1,N
1599497135.7,286047006.7,N
1599497155.5,286047007.5,N
1599497175.3,286047007.3,N
1599497195.2,286047005.2,N
1599497215.0,286047004.7,N
1599497215.9,286047004.7,N
1599497235.8,286047007.4,P
1599497255.6,286047001.7,N
1599497275.4,286047002.5,N
1599497295.3,286047002.5,N
1599497315.1,286047002.1,N
1599497335.8,286046999.8,N
1599497355.7,286047002.3,N
1599497375.5,286047002.4,N
1599497395.3,286047000.4,N
1599497415.2,286047000.6,N
1599497435.9,286046998.5,N
1599497455.7,286047000.9,N
1599497475.6,286047001.0,N
1599497495.4,286047000.6,N
1599497515.2,286047001.1,N
1599497535.1,286047000.6,N
1599497536.0,286047000.6,N
1599497555.8,286046998.1,N
1599497575.6,286046999.0,N
1599497595.5,286046998.4,N
1599497615.3,286046998.8,N
1599497635.1,286046996.5,N
1599497655.9,286046999.3,N
1599497675.7,286046996.6,N
1599497695.5,286046997.4,N
1599497715.4,286046995.0,N
1599497735.2,286046997.2,N
1599497755.0,286046997.8,N
1599497755.9,286046997.8,N
1599497775.8,286046997.9,N
1599497795.6,286046997.9,N
1599497815.4,286046995.2,N
1599497835.3,286046995.2,N
1599497855.1,286046996.1,N
1599497856.0,286046996.1,N
1599497875.8,286046996.3,N
1599497895.7,286046993.3,P
1599497915.5,286046996.4,N
1599497935.3,286046995.9,N
1599497955.2,286046996.3,N
1599497975.9,286046996.3,N
1599497995.7,286046996.3,N
